Retour au catalogue

COSMOS 2251 DEB

ActifLEO
NORAD 36058·DEBRIS·🇷🇺 Russia

Lancé Jun 16, 1993 depuis Plesetsk Cosmodrome

Loading…

Prochains Passages (prochaines 24 heures)

TLE

FraisSource: Space-Track

Époque: Sep 14, 2026, 06:18 UTC

1 36058U 93036AXV 26257.26310643  .00001686  00000-0  35339-3 0  9997
2 36058  74.0196 227.7418 0046727 290.1367  69.4774 14.59886455701309

Suivez COSMOS 2251 DEB en temps réel avec AllMySat

Download on the App Store